COSMOS 2501 (702K)

Last updated on Jan. 17, 2020, 4:32 a.m. UTC

1 40315U 14075A   20015.27657854  .00000010  00000-0  00000-0 0  9993
2 40315  63.9515 272.2302 0015501 209.2726  38.8621  2.13098494 39888
UTC
Height (km)
Latitude
Longitude
Inclination
Orbital Period
UTC large
Height (km)
Speed (km/s)
/
Latitude / Longitude
Inclination (degrees)
Orbital Period (minutes)
Azimuth
Elevation
Range (km)
Doppler Factor
iOS Compass Heading
iOS Angle

Next 30 passes for location: Hong Kong

Rise time Rise Azimuth (degrees) Set time Set Azimuth (degrees) Duration Max altitude (degrees)

No matching passes for this satellites